User: anonymous   Login
Location: Unspecified
(0.0000°N, 0.0000°E)
Time: 19:23:10
(UTC+00:00)
Language:

STARLINK-32735 - Orbit

View from above orbital plane
View from above orbital plane
View from above satellite
View from above satellite

Ground track
Ground track

The orbit is defined by the following mean orbital elements,

1 63044U          26145.35315194 +.00000000 +00000-0 +13503-2 0 00003
2 63044  53.1601 274.1561 0000677  36.5701 323.5347 15.34410147    00
Epoch (UTC): 25 May 2026 08:28:32
Eccentricity: 0.0000677
inclination: 53.1601°
perigee height: 462 km
apogee height: 463 km
right ascension of ascending node: 274.1561°
argument of perigee: 36.5701°
revolutions per day: 15.34410147
mean anomaly at epoch: 323.5347°

The dashed part of the orbit path shows where the satellite is in the earth's shadow,  

DLR